Flag for Norway Weather past 2 weeks in Spydeberg, Norway

Now
36 °F

Drizzle. Low clouds.


Feels Like: 26 °F
Forecast: 34 / 39 °F
Wind: 15 mph from South

Location: Rygge

Current Time: Feb 27, 2015 at 5:44:53 AM

Latest Report: Feb 27, 2015 at 4:50 AM


Visibility: 3 mi

Pressure: 29.71 "Hg

Humidity: 100%

Dew point: 36 °F

Location of SpydebergLocation

Historic Weather in Spydeberg — Graph

°F

Spydeberg temperature yesterday

Maximum temperature yesterday: 39 °F (at 12:20 AM)
Minimum temperature yesterday: 34 °F (at 4:20 AM)
Average temperature yesterday: 37 °F

Past Weeks' High & Low Weather Summary

 TemperatureHumidityPressure
High45 °F (Feb 18, 7:20 AM)100% (Feb 12, 9:50 PM)30.51 "Hg (Feb 12, 9:50 PM)
Low25 °F (Feb 22, 2:20 AM)42% (Feb 22, 2:20 PM)29.00 "Hg (Feb 23, 12:50 PM)
Average37 °F88%29.78 "Hg
* Reported Feb 12 4:20 AM — Feb 27 4:20 AM, Spydeberg, Weather by CustomWeather, © 2015

Note: Actual official high and low records may vary slightly from our data, if they occured in-between our weather recording intervals... More about our weather records

Advertising

Spydeberg weather history for previous 24 hours

 ConditionsComfort  
Time TempWeatherWind HumidityBarometerVisibility
4:20 AM
Fri, Feb 27
37 °FLight rain. Low clouds.16 mph93%29.71 "Hg3 mi
3:50 AM37 °FLight rain. Low clouds.17 mph93%29.71 "Hg3 mi
3:20 AM37 °FLight rain. Low clouds.16 mph93%29.71 "Hg2 mi
2:50 AM37 °FLight rain. Low clouds.17 mph93%29.71 "Hg2 mi
2:20 AM36 °FLight rain. Low clouds.15 mph100%29.71 "Hg2 mi
1:50 AM37 °FLight rain. Low clouds.16 mph93%29.74 "Hg3 mi
1:20 AM37 °FLight rain. Low clouds.16 mph93%29.74 "Hg3 mi
12:50 AM37 °FLight rain. Low clouds.18 mph93%29.74 "Hg3 mi
12:20 AM37 °FLight rain. Low clouds.20 mph93%29.74 "Hg3 mi
11:50 PM
Thu, Feb 26
37 °FLight rain. Low clouds.21 mph93%29.74 "Hg3 mi
11:20 PM37 °FLight rain. Mostly cloudy.17 mph93%29.74 "Hg3 mi
10:50 PM39 °FLight rain. Passing clouds.20 mph87%29.77 "Hg4 mi
9:50 PM39 °FPassing clouds.22 mph87%29.77 "HgN/A
9:20 PM39 °FPartly cloudy.22 mph87%29.77 "HgN/A
8:50 PM39 °FPartly cloudy.22 mph87%29.80 "HgN/A
8:20 PM39 °FPartly cloudy.18 mph87%29.80 "HgN/A
7:50 PM39 °FPassing clouds.16 mph87%29.80 "HgN/A
7:20 PM39 °FPassing clouds.17 mph87%29.80 "HgN/A
5:20 PM37 °FPartly sunny.18 mph87%29.86 "HgN/A
4:50 PM37 °FPartly sunny.17 mph87%29.86 "HgN/A
4:20 PM37 °FPartly sunny.17 mph87%29.86 "HgN/A
3:50 PM37 °FPartly sunny.18 mph87%29.89 "HgN/A
3:20 PM37 °FPartly sunny.20 mph93%29.89 "Hg6 mi
2:50 PM37 °FPartly sunny.18 mph87%29.89 "Hg4 mi
2:20 PM37 °FPartly sunny.20 mph87%29.92 "Hg6 mi
1:50 PM37 °FPartly sunny.18 mph87%29.92 "Hg6 mi
1:20 PM37 °FPartly sunny.16 mph93%29.92 "HgN/A
12:50 PM37 °FPartly sunny.17 mph87%29.95 "HgN/A
12:20 PM37 °FPartly sunny.17 mph87%29.95 "HgN/A
11:50 AM37 °FPartly sunny.17 mph87%29.95 "HgN/A
11:20 AM37 °FPartly sunny.17 mph87%29.95 "HgN/A
10:50 AM36 °FPartly sunny.14 mph93%29.98 "HgN/A
10:20 AM36 °FPartly sunny.16 mph93%29.98 "HgN/A
9:50 AM36 °FPartly sunny.17 mph93%29.98 "HgN/A
9:20 AM36 °FPartly sunny.20 mph93%29.98 "HgN/A
8:50 AM37 °FPartly sunny.17 mph87%29.98 "HgN/A
8:20 AM37 °FBroken clouds.17 mph93%29.98 "HgN/A
7:50 AM37 °FPartly sunny.13 mph100%29.98 "HgN/A
6:50 AM36 °FDrizzle. Fog.6 mph93%29.98 "Hg2 mi
5:58 AM34 °FPartly cloudy.7 mph100%29.98 "HgN/A
5:20 AM34 °FPassing clouds.9 mph93%29.98 "HgN/A
Weather by CustomWeather, © 2015

See weather overviewHow to use our weather pages